DECAYED

STARLINK-1580, 46041 (Decayed)

Orbit data source: Space-Track

STARLINK-1580, 46041 was a payload satellite owned by SpaceX/Seattle (US) in LEO that was launched on Fri, 07 Aug 2020 UTC via an FALCON 9 launch vehicle from the Air Force Eastern Test Range (AFETR). Payload-class satellites include a variety of spacecraft equipped with specific instruments for various scientific and technological missions. These include communications satellites like Starlink; space stations such as the ISS; scientific satellites like the Hubble; Earth observation satellites from companies like Planet Labs, Umbra, and HawkEye 360; GPS; miniature CubeSats for education and research; and military/defense satellites.

Not visible in the next 10 days
Identifier
46041, 2020-055Q
Orbit
Decayed
Country
Flag of USUS
Related business
Manufacturer
SpaceX/Seattle
Mission
Decayed Commercial Communications
Bus & Motor
STARLINK, Unknown motor
Mass
260 kg wet, ~248 kg dry
Launch date (UTC)
2020-08-07 (6 years ago)
Launch vehicle
FALCON 9
Launch site
Air Force Eastern Test Range (AFETR)
Object type
Payload
Rocket body
Debris
Shape & HBR
Box + 1 Pan, 10.1 m
Radar Cross Section
13.562 m², Large (>1 m²)

Expand to show TLE details & history
Last TLE update: 11 months ago

TLE from 11 months ago
0 STARLINK-1580
1 46041U 20055Q   25091.21891780  .02787056  11891-4  12283-2 0  9997
2 46041  53.0289 183.7036 0014842 344.6101 103.0829 16.21384319257320
Epoch: 2025-04-01T05:15Z
TLE epoch observation values (Epoch: 2025-04-01T05:15:14.497Z)
Latitude
53.13332°
Longitude
1.50768°
Altitude
224.499 km
Speed
7.777 km/s
True Right ascension
18h 00m 34s
True Declination
52° 57' 17"
Sunlit
Object was in daylight at epoch
Visualization orbit readout
Latitude
Unknown
Longitude
Unknown
Altitude
Unknown
Speed
Unknown
Apparent Right ascension
Unknown
Apparent Declination
Unknown
Sunlit
N/A
Visualization observer readout
Local Sidereal Time
23:25:32
Azimuth
Unknown
Elevation
Unknown
Doppler factor
Unknown
Orbital elements
Apogee altitude
225.871 km
Perigee altitude
206.297 km
Semi-major axis
6,594.221 km
Eccentricity
0.00148
Inclination
53.0289°
RAAN
183.7036°
Arg. of periapsis
344.6101°
True anomaly
103.24849°
Mean anomaly
103.0829°
Eccentric anomaly
103.1657°
Mean motion
4.0532 °/min
Orbital period
88.82 mins
BSTAR
0.0012283
Loading maneuver chart data...
Computing Atmospheric mass density...
Loading historical data...
Loading historical data...
Loading historical data...
Loading historical data...
Loading historical data...
Loading historical data...
Loading historical data...

Documentation

Showing up to 5 results
|